Regional Weather Roundup
Issued by NWS

Home | Current Version | Previous Version | Text Only | Print | Product List | Glossary Off
Versions: 1 2 3 4 5 6 7 8 9 10 11 12 13 14 15 16 17 18 19 20 21 22 23 24 25 26 27

000
ASUS43 KDMX 230607
RWRIA

WEATHER ROUNDUP FOR IOWA
NATIONAL WEATHER SERVICE DES MOINES IA
100 AM CDT WED APR 23 2014

NOTE: "FAIR" INDICATES FEW OR NO CLOUDS BELOW 12,000 FEET WITH NO
SIGNIFICANT WEATHER AND/OR OBSTRUCTIONS TO VISIBILITY.

* - THESE STATIONS ARE NOT NWS STATIONS...THUS NOT UNDER NWS
QUALITY CONTROL.  THEY ALSO DO NOT REPORT WEATHER SUCH
AS PRECIPITATION OR FOG.

IAZ001>003-012>014-020>022-031>034-043>046-230700-
   NORTHWEST IOWA

CITY           SKY/WX    TMP DP  RH WIND       PRES   REMARKS
CARROLL *      CLOUDY    54  34  47 SE14      30.02S
CHEROKEE *     MOCLDY    54  36  50 SE9       30.00S
DENISON *      CLOUDY    54  34  47 SE10      29.99S
LE MARS *      CLOUDY    55  36  47 SE14G24   29.96F
ORANGE CITY *  CLOUDY    55  34  44 SE12G17   29.96F
SHELDON *      PTCLDY    54  36  50 SE16      29.97S
SIOUX CITY       N/A     57  34  41 SE14      29.95S
6HR MIN TEMP:  56; 6HR MAX TEMP:  66;

SPENCER        CLOUDY    54  36  50 SE16      30.01F
6HR MIN TEMP:  54; 6HR MAX TEMP:  62;

STORM LAKE *   CLOUDY    52  37  58 SE13      30.01S
$$

IAZ055>058-069>071-079>083-090>094-230700-
   SOUTHWEST IOWA

CITY           SKY/WX    TMP DP  RH WIND       PRES   REMARKS
ATLANTIC *     CLOUDY    55  34  44 E12       30.00S
AUDUBON *      MOCLDY    54  30  40 E9        30.02S
CLARINDA *     MOCLDY    55  36  47 SE6       30.02S
COUNCIL BLFS * CLEAR     52  36  54 SE9       29.97S
CRESTON *      CLOUDY    54  34  47 E10       30.03S
HARLAN  *      MOCLDY    55  34  44 SE10      30.03S
LAMONI         CLOUDY    54  35  48 E7        30.03S
6HR MIN TEMP:  52; 6HR MAX TEMP:  63;

RED OAK *      MOCLDY    54  36  50 SE10      29.99F
SHENANDOAH *   MOCLDY    55  37  50 SE9       30.00S
$$

IAZ047>049-059>061-072>074-084-230700-
   CENTRAL IOWA

CITY           SKY/WX    TMP DP  RH WIND       PRES   REMARKS
AMES           MOCLDY    52  34  50 E6        30.06R
6HR MIN TEMP:  52; 6HR MAX TEMP:  61;

ANKENY *       CLOUDY    54  34  47 E7        30.05S
CHARITON *     CLOUDY    50  36  57 E7        30.05S
DES MOINES     MOCLDY    55  32  41 E9        30.05S
6HR MIN TEMP:  55; 6HR MAX TEMP:  65;

GRINNELL*      MOCLDY    50  34  53 E3        30.06S
KNOXVILLE *    CLOUDY    52  34  50 E7        30.05R
MARSHALLTOWN   CLOUDY    48  36  63 E6        30.05S
6HR MIN TEMP:  48; 6HR MAX TEMP:  59;

NEWTON *       MOCLDY    50  34  53 E6        30.06S
PELLA *          N/A     52  34  50 E6        30.07R
PERRY *        CLOUDY    54  32  43 E10       30.04S
$$

IAZ004>006-015-016-023>025-035-036-230700-
   NORTH CENTRAL IOWA

CITY           SKY/WX    TMP DP  RH WIND       PRES   REMARKS
ALGONA *       CLOUDY    52  36  54 SE8       30.05S
CLARION *      CLOUDY    50  36  57 E9        30.05S
ESTHERVILLE    MOCLDY    49  39  68 SE10      30.03S
6HR MIN TEMP:  48; 6HR MAX TEMP:  60; 6HR PCP: TRACE;

FORT DODGE *   CLOUDY    52  36  54 E12       30.05F
MASON CITY     MOCLDY    47  34  60 E10       30.07S
6HR MIN TEMP:  46; 6HR MAX TEMP:  56;

FOREST CITY *  CLOUDY    50  32  50 E6        30.05S
IOWA FALLS *   CLOUDY    50  34  53 E8        30.06S
$$

IAZ007>011-017>019-026>030-037>042-050>054-066-230700-
   NORTHEAST IOWA

CITY           SKY/WX    TMP DP  RH WIND       PRES   REMARKS
CEDAR RAPIDS     N/A     47  31  53 NE7       30.06R
6HR MIN TEMP:  45; 6HR MAX TEMP:  58;

CHARLES CITY * CLOUDY    43  32  65 E10       30.08S
CLINTON *        N/A     43  30  61 E13       30.12R
DECORAH *      CLEAR     43  25  49 E6        30.09S
DUBUQUE          N/A     41  26  55 NE7       30.09R
6HR MIN TEMP:  40; 6HR MAX TEMP:  55;

MONTICELLO *   CLEAR     36  32  87 CALM      30.09R
OELWEIN *      CLOUDY   N/A N/A N/A E7        30.09S
WATERLOO         N/A     42  34  73 NE6       30.07S
6HR MIN TEMP:  39; 6HR MAX TEMP:  57;

$$

IAZ064-065-067-068-078-230700-
   EAST CENTRAL IOWA

CITY           SKY/WX    TMP DP  RH WIND       PRES   REMARKS
DAVENPORT        N/A     42  29  59 NE10      30.07S
6HR MIN TEMP:  40; 6HR MAX TEMP:  59;

IOWA CITY        N/A     47  32  56 NE7       30.08S
6HR MIN TEMP:  45; 6HR MAX TEMP:  61;

MT. PLEASANT *   N/A     45  30  57 N6        30.07R
MUSCATINE *    CLEAR     45  30  57 N3        30.07S
QUAD CITIES      N/A     40  30  67 NE6       30.07R
6HR MIN TEMP:  39; 6HR MAX TEMP:  61;

$$

IAZ062-063-075>077-085>089-095>099-230700-
   SOUTHEAST IOWA

CITY           SKY/WX    TMP DP  RH WIND       PRES   REMARKS
BURLINGTON       N/A     49  31  49 NE6       30.05S
6HR MIN TEMP:  46; 6HR MAX TEMP:  62;

FAIRFIELD *    MOCLDY    46  32  57 NE8       30.07R
FORT MADISON * CLEAR     48  30  49 NE3       30.07R
KEOKUK *       PTCLDY    52  32  46 NE5       30.05S
OSKALOOSA *    MOCLDY    49  37  61 NE7       30.06S
CENTERVILLE *  CLEAR     48  34  57 NE7       30.06S
OTTUMWA          N/A     50  34  54 NE8       30.05S
6HR MIN TEMP:  50; 6HR MAX TEMP:  61;

WASHINGTON *   PTCLDY    41  30  65 NE6       30.06S
$$

ABBREVIATIONS USED IN REMARKS
   TC - TEMPERATURES IN CELSIUS
  WCI - WIND CHILL INDEX
   HX - HEAT INDEX
  VSB - VISIBILITY
$$




USA.gov is the U.S. government's official web portal to all federal, state and local government web resources and services.